| time (UTC) | temp F | wind direction | speed knots | gust knots | rain 1hr in | rain 24hr in | rain mn in | humidity % | barometer mb |
| 20260507040135 | 57 | 293 | 1.7 | 5.2 | 0.00 | 0.00 | 0.00 | 76 | |
| 20260507035135 | 57 | 293 | 2.6 | 6.1 | 0.00 | 0.00 | 0.00 | 76 | |
| 20260507034134 | 57 | 270 | 3.5 | 7.8 | 0.00 | 0.00 | 0.00 | 76 | |
| 20260507033134 | 57 | 293 | 4.3 | 11.3 | 0.00 | 0.00 | 0.00 | 76 | |
| 20260507032134 | 57 | 270 | 4.3 | 7.8 | 0.00 | 0.00 | 0.00 | 76 | |
| 20260507031134 | 57 | 293 | 5.2 | 8.7 | 0.00 | 0.00 | 0.00 | 76 | |
| 20260507030154 | 58 | 270 | 5.2 | 9.6 | 0.00 | 0.00 | 0.00 | 76 | |
| 20260507025134 | 58 | 270 | 5.2 | 11.3 | 0.00 | 0.00 | 0.00 | 76 | |
| 20260507024135 | 58 | 315 | 7.0 | 11.3 | 0.00 | 0.00 | 0.00 | 76 | |
| 20260507023154 | 58 | 293 | 6.1 | 11.3 | 0.00 | 0.00 | 0.00 | 76 | |
| 20260507022134 | 58 | 293 | 6.1 | 10.4 | 0.00 | 0.00 | 0.00 | 75 | |
| 20260507021134 | 58 | 293 | 6.1 | 10.4 | 0.00 | 0.00 | 0.00 | 75 | |
| 20260507020135 | 58 | 293 | 6.1 | 11.3 | 0.00 | 0.00 | 0.00 | 75 | |
| 20260507015135 | 58 | 270 | 5.2 | 10.4 | 0.00 | 0.00 | 0.00 | 75 | |
| 20260507014134 | 58 | 270 | 5.2 | 11.3 | 0.00 | 0.00 | 0.00 | 75 | |
| 20260507013134 | 59 | 293 | 4.3 | 10.4 | 0.00 | 0.00 | 0.00 | 76 | |
| 20260507012134 | 59 | 293 | 5.2 | 9.6 | 0.00 | 0.00 | 0.00 | 76 | |
| 20260507011134 | 59 | 293 | 6.1 | 10.4 | 0.00 | 0.00 | 0.00 | 75 | |
| 20260507010135 | 59 | 293 | 7.0 | 12.2 | 0.00 | 0.00 | 0.00 | 75 | |
| 20260507005155 | 59 | 293 | 6.1 | 10.4 | 0.00 | 0.00 | 0.00 | 75 | |
| 20260507004155 | 60 | 293 | 6.1 | 12.2 | 0.00 | 0.00 | 0.00 | 75 | |
| 20260507003134 | 60 | 293 | 7.0 | 12.2 | 0.00 | 0.00 | 0.00 | 74 | |
| 20260507002134 | 60 | 270 | 5.2 | 7.8 | 0.00 | 0.00 | 0.00 | 75 | |
| 20260507001135 | 60 | 293 | 5.2 | 7.8 | 0.00 | 0.00 | 0.00 | 74 | |
| 20260507000154 | 60 | 270 | 5.2 | 10.4 | 0.00 | 0.00 | 0.00 | 74 | |
| 20260506235135 | 60 | 293 | 6.1 | 10.4 | 0.00 | 0.00 | 0.00 | 75 | |
| 20260506234154 | 60 | 293 | 5.2 | 10.4 | 0.00 | 0.00 | 0.00 | 74 | |
| 20260506233134 | 60 | 293 | 6.1 | 10.4 | 0.00 | 0.00 | 0.00 | 74 | |
| 20260506232134 | 60 | 293 | 7.0 | 11.3 | 0.00 | 0.00 | 0.00 | 73 | |
| 20260506231135 | 61 | 270 | 7.0 | 12.2 | 0.00 | 0.00 | 0.00 | 72 | |
| 20260506230134 | 61 | 293 | 6.1 | 10.4 | 0.00 | 0.00 | 0.00 | 72 | |
| 20260506225215 | 61 | 293 | 7.0 | 11.3 | 0.00 | 0.00 | 0.00 | 72 | |
| 20260506224135 | 62 | 293 | 6.1 | 10.4 | 0.00 | 0.00 | 0.00 | 71 | |
| 20260506223134 | 62 | 293 | 6.1 | 12.2 | 0.00 | 0.00 | 0.00 | 71 | |
| 20260506222135 | 62 | 293 | 6.1 | 10.4 | 0.00 | 0.00 | 0.00 | 70 | |
| 20260506221134 | 63 | 270 | 4.3 | 9.6 | 0.00 | 0.00 | 0.00 | 69 | |
| 20260506220154 | 63 | 293 | 5.2 | 9.6 | 0.00 | 0.00 | 0.00 | 69 | |
| 20260506215134 | 63 | 293 | 5.2 | 10.4 | 0.00 | 0.00 | 0.00 | 69 | |
| 20260506214155 | 63 | 270 | 5.2 | 10.4 | 0.00 | 0.00 | 0.00 | 68 | |
| 20260506213135 | 63 | 293 | 5.2 | 11.3 | 0.00 | 0.00 | 0.00 | 69 | |
| 20260506212135 | 64 | 270 | 5.2 | 10.4 | 0.00 | 0.00 | 0.00 | 67 | |
| 20260506211135 | 64 | 293 | 6.1 | 11.3 | 0.00 | 0.00 | 0.00 | 67 | |
| 20260506210134 | 64 | 293 | 6.1 | 11.3 | 0.00 | 0.00 | 0.00 | 66 | |
| 20260506205135 | 65 | 293 | 5.2 | 8.7 | 0.00 | 0.00 | 0.00 | 65 | |
| 20260506204135 | 65 | 270 | 5.2 | 9.6 | 0.00 | 0.00 | 0.00 | 64 | |
| 20260506203155 | 64 | 293 | 4.3 | 9.6 | 0.00 | 0.00 | 0.00 | 65 | |
| 20260506202134 | 63 | 270 | 6.1 | 9.6 | 0.00 | 0.00 | 0.00 | 66 | |
| 20260506201135 | 64 | 315 | 6.1 | 10.4 | 0.00 | 0.00 | 0.00 | 66 | |
| 20260506200135 | 64 | 293 | 5.2 | 10.4 | 0.00 | 0.00 | 0.00 | 66 | |
| 20260506195155 | 64 | 225 | 3.5 | 7.8 | 0.00 | 0.00 | 0.00 | 67 | |
| 20260506194135 | 64 | 270 | 2.6 | 6.1 | 0.00 | 0.00 | 0.00 | 68 | |
| 20260506193135 | 64 | 270 | 0.9 | 4.3 | 0.00 | 0.00 | 0.00 | 70 | |
| 20260506192134 | 62 | 270 | 0.9 | 4.3 | 0.00 | 0.00 | 0.00 | 72 | |
| 20260506191134 | 61 | 270 | 2.6 | 5.2 | 0.00 | 0.00 | 0.00 | 74 | |
| 20260506190134 | 61 | 270 | 2.6 | 5.2 | 0.00 | 0.00 | 0.00 | 75 | |
| 20260506185135 | 61 | 293 | 1.7 | 4.3 | 0.00 | 0.00 | 0.00 | 75 | |
| 20260506184135 | 60 | 248 | 1.7 | 4.3 | 0.00 | 0.00 | 0.00 | 76 | |
| 20260506183155 | 60 | 248 | 2.6 | 5.2 | 0.00 | 0.00 | 0.00 | 78 | |
| 20260506182135 | 59 | 315 | 2.6 | 6.1 | 0.00 | 0.00 | 0.00 | 79 | |
| 20260506181135 | 59 | 248 | 3.5 | 5.2 | 0.00 | 0.00 | 0.00 | 78 | |
| 20260506180135 | 59 | 270 | 3.5 | 7.0 | 0.00 | 0.00 | 0.00 | 77 | |
| 20260506175135 | 59 | 248 | 2.6 | 5.2 | 0.00 | 0.00 | 0.00 | 77 | |
| 20260506174135 | 60 | 270 | 0.9 | 4.3 | 0.00 | 0.00 | 0.00 | 77 | |
| 20260506173135 | 59 | 270 | 1.7 | 3.5 | 0.00 | 0.00 | 0.00 | 77 | |
| 20260506172135 | 59 | 270 | 1.7 | 3.5 | 0.00 | 0.00 | 0.00 | 78 | |
| 20260506171134 | 59 | 270 | 1.7 | 4.3 | 0.00 | 0.00 | 0.00 | 78 | |
| 20260506170135 | 59 | 270 | 2.6 | 7.8 | 0.00 | 0.00 | 0.00 | 78 | |
| 20260506165135 | 58 | 0.0 | 3.5 | 0.00 | 0.00 | 0.00 | 79 | ||
| 20260506164135 | 58 | 293 | 0.9 | 4.3 | 0.00 | 0.00 | 0.00 | 79 | |
| 20260506163134 | 58 | 293 | 1.7 | 4.3 | 0.00 | 0.00 | 0.00 | 79 | |
| 20260506162134 | 57 | 0.0 | 2.6 | 0.00 | 0.00 | 0.00 | 80 | ||
| 20260506161135 | 57 | 293 | 0.9 | 4.3 | 0.00 | 0.00 | 0.00 | 79 | |
| 20260506160155 | 57 | 293 | 1.7 | 5.2 | 0.00 | 0.00 | 0.00 | 80 | |
| 20260506155135 | 57 | 293 | 1.7 | 5.2 | 0.00 | 0.00 | 0.00 | 79 | |
| 20260506154214 | 57 | 315 | 3.5 | 6.1 | 0.00 | 0.00 | 0.00 | 80 | |
| 20260506153135 | 57 | 315 | 1.7 | 5.2 | 0.00 | 0.00 | 0.00 | 80 | |
| 20260506152135 | 57 | 315 | 1.7 | 5.2 | 0.00 | 0.00 | 0.00 | 81 | |
| 20260506151155 | 56 | 0.0 | 2.6 | 0.00 | 0.00 | 0.00 | 81 | ||
| 20260506150134 | 56 | 315 | 1.7 | 4.3 | 0.00 | 0.00 | 0.00 | 81 | |
| 20260506145135 | 56 | 315 | 1.7 | 6.1 | 0.00 | 0.00 | 0.00 | 82 | |
| 20260506144135 | 56 | 315 | 1.7 | 4.3 | 0.00 | 0.00 | 0.00 | 83 | |
| 20260506143155 | 55 | 315 | 3.5 | 6.1 | 0.00 | 0.00 | 0.00 | 84 | |
| 20260506142134 | 55 | 293 | 3.5 | 7.8 | 0.00 | 0.00 | 0.00 | 84 | |
| 20260506141135 | 55 | 270 | 3.5 | 7.0 | 0.00 | 0.00 | 0.00 | 84 | |
| 20260506140135 | 55 | 293 | 3.5 | 6.1 | 0.00 | 0.00 | 0.00 | 84 | |
| 20260506135135 | 55 | 293 | 3.5 | 6.1 | 0.00 | 0.00 | 0.00 | 85 | |
| 20260506134155 | 55 | 293 | 2.6 | 3.5 | 0.00 | 0.00 | 0.00 | 85 | |
| 20260506133135 | 55 | 293 | 1.7 | 5.2 | 0.00 | 0.00 | 0.00 | 85 | |
| 20260506132134 | 55 | 293 | 3.5 | 6.1 | 0.00 | 0.00 | 0.00 | 85 | |
| 20260506131155 | 55 | 293 | 2.6 | 4.3 | 0.00 | 0.00 | 0.00 | 85 | |
| 20260506130135 | 55 | 293 | 2.6 | 5.2 | 0.00 | 0.00 | 0.00 | 85 | |
| 20260506125134 | 55 | 293 | 3.5 | 5.2 | 0.00 | 0.00 | 0.00 | 85 | |
| 20260506124134 | 55 | 293 | 1.7 | 3.5 | 0.00 | 0.00 | 0.00 | 86 | |
| 20260506123135 | 55 | 293 | 1.7 | 4.3 | 0.00 | 0.00 | 0.00 | 86 | |
| 20260506122135 | 55 | 293 | 2.6 | 6.1 | 0.00 | 0.00 | 0.00 | 86 | |
| 20260506121135 | 55 | 293 | 1.7 | 4.3 | 0.00 | 0.00 | 0.00 | 86 | |
| 20260506120135 | 55 | 293 | 2.6 | 5.2 | 0.00 | 0.00 | 0.00 | 86 | |
| 20260506115135 | 55 | 293 | 2.6 | 5.2 | 0.00 | 0.00 | 0.00 | 86 | |
| 20260506114135 | 55 | 293 | 2.6 | 5.2 | 0.00 | 0.00 | 0.00 | 86 | |
| 20260506113135 | 55 | 293 | 4.3 | 6.1 | 0.00 | 0.00 | 0.00 | 86 | |
| 20260506112135 | 55 | 293 | 3.5 | 6.1 | 0.00 | 0.00 | 0.00 | 86 | |
| 20260506111135 | 56 | 315 | 5.2 | 7.0 | 0.00 | 0.00 | 0.00 | 86 | |
| 20260506110135 | 0 | 0.0 | 0.0 | 0.00 | 0.00 | 0.00 | |||
| 20260506105135 | 0 | 0.0 | 0.0 | 0.00 | 0.00 | 0.00 | |||
| 20260506104135 | 0 | 0.0 | 0.0 | 0.00 | 0.00 | 0.00 | |||
| 20260506103135 | 0 | 0.0 | 0.0 | 0.00 | 0.00 | 0.00 | |||
| 20260506102135 | 56 | 273 | 5.2 | 0.0 | 0.00 | 0.00 | 0.00 | 85 | |
| 20260506101135 | 56 | 293 | 4.3 | 7.0 | 0.00 | 0.00 | 0.00 | 85 | |
| 20260506100159 | 56 | 293 | 3.5 | 7.0 | 0.00 | 0.00 | 0.00 | 85 | |
| 20260506095135 | 56 | 293 | 2.6 | 6.1 | 0.00 | 0.00 | 0.00 | 85 | |
| 20260506094139 | 56 | 270 | 3.5 | 7.0 | 0.00 | 0.00 | 0.00 | 84 | |
| 20260506093156 | 57 | 270 | 2.6 | 4.3 | 0.00 | 0.00 | 0.00 | 84 | |
| 20260506092135 | 57 | 270 | 2.6 | 6.1 | 0.00 | 0.00 | 0.00 | 84 | |
| 20260506091136 | 57 | 270 | 1.7 | 4.3 | 0.00 | 0.00 | 0.00 | 84 | |
| 20260506090136 | 57 | 270 | 1.7 | 4.3 | 0.00 | 0.00 | 0.00 | 84 | |
| 20260506085135 | 57 | 270 | 0.9 | 4.3 | 0.00 | 0.00 | 0.00 | 84 | |
| 20260506084135 | 57 | 270 | 2.6 | 5.2 | 0.00 | 0.00 | 0.00 | 84 | |
| 20260506083135 | 57 | 270 | 1.7 | 4.3 | 0.00 | 0.00 | 0.00 | 83 | |
| 20260506082135 | 57 | 270 | 1.7 | 4.3 | 0.00 | 0.00 | 0.00 | 83 | |
| 20260506081155 | 57 | 270 | 1.7 | 6.1 | 0.00 | 0.00 | 0.00 | 83 | |
| 20260506080135 | 57 | 270 | 0.9 | 4.3 | 0.00 | 0.00 | 0.00 | 83 | |
| 20260506073139 | 57 | 270 | 2.6 | 5.2 | 0.00 | 0.00 | 0.00 | 83 | |
| 20260506072135 | 57 | 270 | 1.7 | 4.3 | 0.00 | 0.00 | 0.00 | 83 | |
| 20260506071139 | 57 | 270 | 0.9 | 4.3 | 0.00 | 0.00 | 0.00 | 83 | |
| 20260506070135 | 57 | 270 | 1.7 | 3.5 | 0.00 | 0.00 | 0.00 | 83 | |
| 20260506062135 | 58 | 270 | 2.6 | 5.2 | 0.00 | 0.00 | 0.00 | 82 | |
| 20260506061135 | 58 | 270 | 1.7 | 5.2 | 0.00 | 0.00 | 0.00 | 82 | |
| 20260506060135 | 58 | 270 | 2.6 | 4.3 | 0.00 | 0.00 | 0.00 | 82 | |
| 20260506051135 | 58 | 315 | 0.9 | 4.3 | 0.00 | 0.00 | 0.00 | 82 | |
| 20260506050135 | 58 | 315 | 1.7 | 5.2 | 0.00 | 0.00 | 0.00 | 82 | |
| 20260506044134 | 59 | 315 | 1.7 | 4.3 | 0.00 | 0.00 | 0.00 | 80 | |
| 20260506043135 | 59 | 315 | 2.6 | 6.1 | 0.00 | 0.00 | 0.00 | 80 | |
| 20260506042138 | 59 | 315 | 3.5 | 6.1 | 0.00 | 0.00 | 0.00 | 79 | |
| 20260506041138 | 60 | 315 | 2.6 | 5.2 | 0.00 | 0.00 | 0.00 | 78 |